一网星座-0167星 (ONEWEB-0167 )

导读 | 星芒AI

ONEWEB-0167 是 OneWeb 卫星通信公司发射的低轨通信卫星之一,属于其全球宽带互联网星座计划。该卫星运行在约 1200 公里的近地轨道,采用先进的通信技术,旨在为全球偏远地区提供高速互联网接入。作为 OneWeb 星座的一部分,ONEWEB-0167 与其他卫星协同工作,支持航空、航海及地面用户的连接需求,助力实现全球数字包容。

基本信息
目录编号:
48064
目录名称:
ONEWEB-0167
国际标识:
2021-025Y
轨道中心:
EARTH
卫星名称:
一网星座-0167星
卫星全名:
一网星座-0167星 (ONEWEB-0167 )
卫星状态:
在轨 (已飞行1726 天)
发射日期:
2021-03-25 UTC
国别 :
英国 (GB)
星等 :
--
轨道信息
数据来源 国际轨道数据
星历时间: 2025-12-15T06:14:24+0800
20小时前
查看轨道信息
半长轴: 7587.906km
偏心率: 0.0001664
轨道倾角: 87.897°
近地点辐角 66.618°
升交点赤经 356.860°
平近点角 293.512°
近地点: 1208.508km
远地点: 1211.034km
周期: 109.633分钟
每日圈数: 13.134693
详细信息
平衡模式:
三轴稳定
覆盖范围:
全球
运营商:
一网卫星公司
运营商所在国:
英国
制造商(研发单位):
一网卫星公司
制造商所在国:
英国
使用方式:
暂无
卫星简介
OneWeb卫星网络由648颗重约125公斤的微型卫星组成,运行在1200公里的轨道上。 每颗卫星都能够提供至少每秒8千兆位的吞吐量,以使用其高吞吐量的Ku频段有效载荷为家庭和移动平台提供互联网接入。该卫星仍在工作。
2D轨道图
3D轨道图
轨道高度分析图
轨道倾角分析图
轨道综合分析图
查看轨道综合分析图